EHI
0 0 0 0 0 0 0 0 0 0 0 0 0 0 0 0 0 0 0 0 0 0 0 0 0 0 0 0 0 0 0 0 0 0 0 0 0 0 0 0 0 0 0 0
0 0 0 0 0 0 0 0 0 0 0 0 0 0 0 0 0 0 0 0 0 0 0 0 0 0 0 0 0 0 0 0 0 0 0 0 0 0 0 0 0 0 0 0
0 0 0 0 0 0 0 0 0 0 0 0 0 0 0 0 0 0 0 0 0 0 0 0 0 0 0 0 0 0 0 0 0 0 0 0 0 0 0 0 0 0 0 0
0 0 0 0 0 0 0 0 0 0 0 0 0 0 0 0 0 0 0 0 0 0 0 0 0 0 0 0 0 0 0 0 0 0 0 0 0 0 0 0 0 0 0 0
0 0 0 0 0 0 0 0 0 0 0 0 0 0 0 0 0 0 0 0 0 0 0 0 0 0 0 0 0 0 0 0 0 0 0 0 0 0 0 0 0 0 0 0
0 0 0 0 0 0 0 0 0 0 0 0 0 0 0 0 0 0 0 0 0 0 0 0 0 0 0 0 0 0 0 0 0 0 0 0 0 0 0 0 0 0 0 0
0 0 0 0 0 0 0 0 0 0 0 0 0 0 0 0 0 0 0 0 0 0 0 0 0 0 0 0 0 0 0 0 0 0 0 0 0 0 0 0 0 0 0 0
0 0 0 0 0 0 0 0 0 0 0 0 0 0 0 0 0 0 0 0 0 0 0 0 0 0 0 0 0 0 0 0 0 0 0 0 0 0 0 0 0 0 0 0
0 0 0 0 0 0 0 0 0 0 0 0 0 0 0 0 0 0 0 0 0 0 0 0 0 0 0 0 0 0 0 0 0 0 0 0 0 0 0 0 0 0 0 0
0 0 0 0 0 0 0 0 0 0 0 0 0 0 0 0 0 0 0 0 0 0 0 0 0 0 0 0 0 0 0 0 0 0 0 0 0 0 0 0 0 0 0 0
0 0 0 0 0 0 0 0 0 0 0 0 0 0 0 0 0 0 0 0 0 0 0 0 0 0 0 0 0 0 0 0 0 0 0 0 0 0 0 0 0 0 0 0
0 0 0 0 0 0 0 0 0 0 0 0 0 0 0 0 0 0 0 0 0 0 0 0 0 0 0 0 0 0 0 0 0 0 0 0 0 0 0 0 0 0 0 0
0 0 0 0 0 0 0 0 0 0 0 0 0 0 0 0 0 0 0 0 0 0 0 0 0 0 0 0 0 0 0 0 0 0 0 0 0 0 0 0 0 0 0 0
0 0 0 0 0 0 0 0 0 0 0 0 0 0 0 0 0 0 0 0 0 0 0 0 0 0 0 0 0 0 0 0 0 0 0 0 0 0 0 0 0 0 0 0
0 0 0 0 0 0 0 0 0 0 0 0 0 0 0 0 0 0 0 0 0 0 0 0 0 0 0 0 0 0 0 0 0 0 0 0 0 0 0 0 0 0 0 0
0 0 0 0 0 0 0 0 0 0 0 0 0 0 0 0 0 0 0 0 0 0 0 0 0 0 0 0 0 0 0 0 0 0 0 0 0 0 0 0 0 0 0 0
0 0 0 0 0 0 0 0 0 0 0 0 0 0 0 0 0 0 0 0 0 0 0 0 0 0 0 0 0 0 0 0 0 0 0 0 0 0 0 0 0 0 0 0
0 0 0 0 0 0 0 0 0 0 0 0 0 0 0 0 0 0 0 0 0 0 0 0 0 0 0 0 0 0 0 0 0 0 0 0 0 0 0 0 0 0 0 0
0 0 0 0 0 0 0 0 0 0 0 0 0 0 0 0 0 0 0 0 0 0 0 0 0 0 0 0 0 0 0 0 0 0 0 0 0 0 0 0 0 0 0 0
0 0 0 0 0 0 0 0 0 0 0 0 0 0 0 0 0 0 0 0 0 0 0 0 0 0 0 0 0 0 0 0 0 0 0 0 0 0 0 0 0 0 0 0
0 0 0 0 0 0 0 0 0 0 0 0 0 0 0 0 0 0 0 0 0 0 0 0 0 0 0 0 0 0 0 0 0 0 0 0 0 0 0 0 0 0 0 0
0 0 0 0 0 0 0 0 0 0 0 0 0 0 0 0 0 0 0 0 0 0 0 0 0 0 0 0 0 0 0 0 0 0 0 0 0 0 0 0 0 0 0 0
0 0 0 0 0 0 0 0 0 0 0 0 0 0 0 0 0 0 0 0 0 0 0 0 0 0 0 0 0 0 0 0 0 0 0 0 0 0 0 0 0 0 0 0
0 0 0 0 0 0 0 0 0 0 0 0 0 0 0 0 0 0 0 0 0 0 0 0 0 0 0 0 0 0 0 0 0 0 0 0 0 0 0 0 0 0 0 0
0 0 0 0 0 0 0 0 0 0 0 0 0 0 0 0 0 0 0 0 0 0 0 0 0 0 0 0 0 0 0 0 0 0 0 0 0 0 0 0 0 0 0 0
0 0 0 0 0 0 0 0 0 0 0 0 0 0 0 0 0 0 0 0 0 0 0 0 0 0 0 0 0 0 0 0 0 0 0 0 0 0 0 0 0 0 0 0
Wind_Speed
5 7 7 6 5 6 5 5 5 5 2 1 4 8 7 5 3 3 5 5 5 5 6 7 8 9 9 9 11 11 12 12 10 9 10 10 10 9 8 7 11 11 11 12
6 7 6 3 2 5 4 5 4 5 3 2 3 6 8 6 4 4 3 3 4 6 7 8 8 8 8 8 10 11 11 12 11 9 9 8 10 9 8 8 9 10 11 12
9 4 5 4 8 8 2 4 4 2 5 3 2 6 10 8 5 5 3 2 6 8 8 8 8 8 7 8 10 11 10 11 11 11 8 9 8 7 7 9 7 9 11 11
7 4 4 4 7 6 3 5 5 3 2 4 7 3 8 9 7 6 2 6 7 6 6 7 8 8 7 7 7 9 9 9 9 9 9 11 10 10 11 9 9 10 11 11
5 6 7 6 4 5 4 2 4 5 4 4 6 4 5 8 7 5 6 6 5 6 7 8 8 7 7 7 7 7 8 8 8 9 9 9 9 8 8 9 10 10 9 10
5 3 3 4 4 4 7 6 6 4 3 5 4 6 4 2 5 7 6 5 5 6 7 7 7 7 6 7 6 7 8 9 9 9 9 9 10 10 11 11 10 10 9 8
6 4 3 3 5 2 6 6 2 2 4 3 1 1 6 7 9 6 4 5 6 7 7 7 7 7 7 7 7 8 9 9 9 9 9 9 9 9 10 11 10 11 10 9
3 4 3 4 5 4 5 5 4 4 5 6 3 3 6 8 5 3 4 5 6 7 6 7 7 7 7 7 8 8 9 9 9 9 9 9 9 7 7 9 10 9 9 9
6 3 3 2 3 3 5 5 2 3 6 6 1 7 5 5 4 3 4 5 6 6 6 6 6 6 6 7 7 8 9 10 10 10 10 9 9 8 9 9 9 7 9 11
6 1 4 3 3 1 2 3 3 3 5 6 8 2 5 5 2 4 4 5 6 6 6 6 6 6 6 6 6 7 8 9 9 9 10 12 9 9 9 9 10 10 11 12
4 4 3 3 1 1 1 2 2 3 4 3 7 2 5 6 2 2 4 5 6 6 6 6 6 6 6 6 6 7 7 8 8 9 9 10 9 9 9 9 10 10 10 12
3 3 3 3 4 3 2 3 2 3 4 3 5 1 6 6 3 4 4 5 6 6 6 6 6 7 6 7 7 7 7 8 9 9 9 10 10 10 10 10 11 12 12 10
5 3 3 1 1 1 4 4 2 2 2 4 4 2 6 5 4 4 5 6 7 7 7 6 6 6 7 7 7 8 8 8 9 9 10 10 10 10 11 11 12 14 12 10
3 3 3 4 3 0 4 4 6 4 4 5 6 2 4 4 4 5 6 8 7 6 6 7 7 7 7 8 8 8 8 8 9 9 10 10 10 10 11 12 13 14 13 11
2 4 4 7 5 3 6 6 6 8 8 6 7 6 3 5 4 5 7 7 7 6 7 7 8 7 8 8 8 8 8 8 9 9 9 8 9 9 11 12 13 13 13 14
2 3 4 6 3 2 7 8 8 8 8 9 8 5 6 3 4 6 6 7 6 6 7 8 8 9 9 9 9 9 8 8 9 8 8 8 8 9 11 12 12 12 12 11
2 3 3 5 2 5 8 5 10 6 6 5 4 1 4 3 5 5 6 7 5 5 6 7 7 8 8 9 8 9 9 10 9 8 8 8 9 10 11 13 12 11 10 9
2 2 2 4 6 6 4 2 1 5 5 5 3 1 4 5 5 8 8 6 5 5 5 6 6 7 7 7 7 8 9 10 9 8 8 9 9 10 10 10 10 9 8 8
3 2 2 1 4 11 3 3 2 3 5 4 3 3 5 6 4 6 6 6 5 4 4 4 5 6 7 7 8 9 9 10 9 9 10 10 10 9 9 9 9 9 8 8
1 2 1 2 3 8 4 5 3 2 5 4 5 5 5 4 1 2 3 5 4 3 3 4 5 6 7 8 8 8 10 10 10 11 11 11 10 9 9 9 9 8 8 8
3 3 4 5 6 13 3 6 6 4 5 7 6 6 5 3 3 5 5 5 4 4 4 5 6 6 7 7 7 9 10 10 10 11 11 11 9 10 9 8 8 8 8 9
8 6 6 5 6 13 7 8 8 6 5 6 7 6 6 7 8 7 5 4 4 4 5 6 6 7 7 7 7 9 9 10 10 11 11 10 10 10 10 8 8 8 8 8
7 7 5 8 10 3 8 7 4 7 6 6 6 7 7 6 7 6 4 4 4 4 5 5 6 7 7 7 7 8 10 10 11 11 10 10 10 9 8 8 7 7 6 6
5 2 1 7 6 6 8 6 6 5 7 9 9 8 7 6 7 6 4 3 3 3 4 5 6 7 7 7 7 7 8 9 10 11 10 9 9 9 8 7 6 6 6 6
5 7 5 8 4 4 7 8 8 8 11 11 8 7 7 8 7 5 3 3 2 2 3 4 5 6 7 8 8 8 8 10 10 10 9 8 9 8 8 8 8 9 5 9
7 10 10 9 7 8 7 11 11 12 11 11 11 8 7 7 8 6 4 3 2 2 3 4 5 6 7 7 8 7 8 9 10 10 8 7 7 7 7 6 7 15 16 18
Wind_Direction
40 51 33 8 357 328 3 1 69 109 131 229 161 150 160 174 184 58 40 21 16 38 37 35 34 39 24 15 5 356 359 353 350 351 344 342 340 336 333 343 345 343 346 341
89 52 359 339 346 326 351 346 59 128 140 234 174 181 161 172 133 73 349 341 7 27 23 21 28 34 21 15 7 355 359 351 351 350 341 339 331 328 332 339 334 339 343 338
75 31 324 13 26 347 355 35 349 326 134 234 223 218 171 162 148 173 224 21 35 27 16 13 23 24 16 17 11 355 351 349 348 347 341 338 330 330 335 335 331 338 338 333
73 22 337 49 40 344 29 35 321 283 203 213 177 257 163 164 182 192 128 53 38 27 16 21 22 15 14 19 11 352 344 345 345 346 342 342 341 337 335 332 329 334 332 329
75 21 14 29 8 337 326 340 280 275 236 262 195 244 137 155 187 148 74 50 34 24 25 29 20 8 15 20 8 350 341 342 343 344 339 338 334 330 327 328 329 330 327 328
113 100 47 348 289 260 287 259 227 256 240 260 198 189 145 170 127 86 51 33 28 23 28 28 12 5 16 14 1 347 342 342 343 343 338 337 333 332 331 333 331 329 327 329
136 105 70 354 320 324 338 332 298 258 226 223 117 225 94 87 79 71 33 26 28 24 27 18 7 7 10 0 355 349 347 343 343 341 339 334 332 331 330 332 328 327 329 330
172 123 42 26 22 329 326 3 22 320 310 312 244 124 109 111 113 104 47 38 29 30 31 20 12 10 2 354 353 349 345 341 341 340 337 330 332 330 326 326 323 325 325 322
358 89 140 75 6 339 349 38 6 283 277 276 306 97 133 140 159 78 35 31 31 36 31 17 11 7 360 354 353 346 342 339 339 337 334 329 332 327 324 322 321 322 323 323
329 326 135 136 219 162 20 338 318 304 325 306 296 106 160 159 90 26 14 25 31 35 24 16 11 3 358 353 348 343 339 335 333 335 334 334 327 326 326 325 325 326 324 322
332 307 171 196 231 62 211 226 282 270 240 267 295 316 107 125 120 27 20 36 40 33 26 17 7 0 353 349 345 339 336 334 334 332 329 326 324 327 329 327 326 324 321 324
24 319 281 103 68 34 323 328 332 297 305 283 277 283 140 150 131 69 34 44 51 41 31 18 5 354 348 347 343 340 336 337 334 330 328 325 328 329 329 327 328 324 320 324
353 298 278 266 142 230 230 200 228 301 290 263 263 291 167 160 88 62 43 52 47 32 23 12 360 351 348 344 343 340 340 338 331 331 328 326 328 328 328 327 327 322 319 323
322 287 270 291 331 17 255 195 186 209 236 251 248 316 159 109 54 41 47 58 45 24 16 5 354 348 346 342 342 337 339 330 330 329 323 323 324 327 326 326 323 320 321 322
293 285 291 288 277 230 256 261 236 212 230 253 277 334 53 85 45 44 54 56 32 12 9 2 351 344 341 341 336 334 327 324 326 318 316 317 320 321 322 322 319 321 324 323
242 284 300 284 210 235 259 239 236 246 237 249 277 306 105 66 52 41 62 58 26 9 3 355 347 342 340 334 329 327 322 324 317 311 311 315 319 321 322 321 324 325 322 319
204 286 294 283 292 277 273 239 198 210 210 222 250 137 99 49 39 30 78 67 32 12 359 350 342 337 329 322 324 326 328 320 315 314 315 319 319 319 321 326 326 322 320 321
311 265 264 295 338 267 245 7 305 206 227 219 231 79 83 74 55 73 81 68 38 15 357 341 331 322 314 318 326 327 321 317 318 323 326 323 320 316 318 323 323 320 318 318
336 299 294 345 294 277 232 184 184 206 266 209 184 126 96 71 64 87 66 68 51 21 359 333 323 316 323 328 326 325 322 321 327 333 331 329 324 322 326 327 325 325 322 319
281 299 268 167 240 259 249 133 94 85 265 155 131 124 103 79 310 149 96 76 55 25 356 337 331 330 328 321 321 326 326 330 335 334 334 330 327 329 328 327 325 323 325 328
190 200 210 212 238 266 150 132 123 173 240 135 127 121 117 128 138 125 106 79 49 25 359 353 342 331 319 316 329 329 328 335 333 332 329 329 333 332 331 329 327 329 335 338
187 193 213 198 227 258 150 148 191 206 121 124 120 119 120 112 110 109 98 80 49 19 360 354 340 325 318 327 336 329 330 329 332 332 332 335 338 336 340 334 334 336 341 344
211 205 209 206 221 189 160 184 166 129 138 127 118 117 120 122 123 116 104 81 51 22 359 348 333 321 324 335 340 331 325 331 336 335 334 336 336 332 334 337 338 338 341 347
226 154 246 277 260 187 185 149 133 140 127 118 121 124 127 127 120 116 106 81 49 18 356 342 331 327 329 336 336 324 326 337 337 334 332 339 338 337 339 342 342 343 342 355
223 159 217 254 252 129 181 158 142 114 110 111 112 118 128 127 131 136 133 98 57 6 347 338 330 326 326 328 327 328 343 343 337 331 333 343 343 337 337 343 347 352 352 10
205 185 194 228 213 179 191 160 141 137 139 139 134 128 126 131 140 146 147 116 70 357 349 341 332 327 322 324 326 337 349 343 338 335 341 346 343 340 340 341 347 359 5 11